Regional Weather Roundup
Issued by NWS Newport/Morehead, NC

Current Version | Previous Version | Text Only | Print | Product List | Glossary Off
Versions: 1 2 3 4 5 6 7 8 9 10 11 12 13 14 15 16 17 18 19 20 21 22 23 24 25 26 27 28 29 30 31 32 33 34 35 36 37 38 39 40 41 42 43 44 45 46 47 48 49 50

000
ASUS42 KMHX 220713
RWRMHX
WEATHER ROUNDUP FOR EASTERN NORTH CAROLINA
NATIONAL WEATHER SERVICE NEWPORT/MOREHEAD CITY NC
300 AM EDT SUN OCT 22 2017

NOTE: "FAIR" INDICATES FEW OR NO CLOUDS BELOW 12,000 FEET
WITH NO SIGNIFICANT WEATHER AND/OR OBSTRUCTIONS TO VISIBILITY

NCZ015>017-031-032-045>047-102-103-220800-
NORTH COAST

CITY           SKY/WX    TMP DP  RH WIND       PRES   REMARKS
EDENTON        PTCLDY    56  54  92 CALM      30.34S
ELIZABETH CITY CLOUDY    54  54 100 CALM      30.33S FOG
KITTY HAWK     CLOUDY    65  58  78 CALM      30.31F
MANTEO         CLOUDY   N/A N/A N/A CALM      30.33S

$$

NCZ045>047-081-094-103-104-220800-
CENTRAL COAST

CITY           SKY/WX    TMP DP  RH WIND       PRES   REMARKS
FRISCO         CLOUDY    67  62  84 E6        30.31S

$$

NCZ095-097-098-100-101-220800-
SOUTHERN COAST

CITY           SKY/WX    TMP DP  RH WIND       PRES   REMARKS
BEAUFORT       PTCLDY    61  60  97 NE5       30.31S
CEDAR ISLAND   NOT AVBL
JACKSONVILLE   PTCLDY    59  57  93 CALM      30.31S
PINEY ISLAND     N/A    N/A N/A N/A NE6       30.31S
WILMINGTON     PTCLDY    58  58 100 CALM      30.31S


$$

NCZ011>013-027>030-043-044-078>080-089-090>093-098-220800-
COASTAL PLAIN

CITY           SKY/WX    TMP DP  RH WIND       PRES   REMARKS
AHOSKIE        CLOUDY    52  52 100 CALM      30.33F
CLINTON        PTCLDY    55  55 100 CALM      30.33S
ELIZABETHTOWN  NOT AVBL
GOLDSBORO      PTCLDY    55  53  93 CALM      30.31S FOG
GREENVILLE     FOG       55  55 100 CALM      30.33F VSB 1/2
HAVELOCK       PTCLDY    58  57  97 CALM      30.33S
KENANSVILLE    PTCLDY    50  50 100 CALM      30.33S FOG
KINSTON        PTCLDY    53  52  97 CALM      30.33S FOG
NEW BERN       FOG       56  56 100 CALM      30.33F VSB 1/4
RICHLANDS      PTCLDY    54  53  97 CALM      30.33S
ROCKY MOUNT    FOG       53  53 100 CALM      30.34R VSB 1/4
WASHINGTON     PTCLDY    56  55  97 CALM      30.33F FOG
WHITEVILLE       N/A     58  57  98 CALM      30.31S FOG

$$

AMZ130-135-150-152-154-156-158-170-250-252-270-ANZ085-086-088-633-658-670-220800-
MARINE OBSERVATIONS

STATION/POSITION TIME  TEMP    WIND        PRES    WAVE   SWELL
                       AIR SEA DIR/SP/G            HT/PER HT/PER
                 (UTC) (F)     (DEG/KT/KT) (MB)    (FT/S) (FT/S)
CHESAPEAKE LIGHT NOT AVBL
64 E VA BEACH    0650   68 69   60/  4/  6 1027.6    3/ 8   3/ 8
DUCK             0648      70   90/  7/  8 1026.5
2 E DUCK         0630      70                N/A     2/ 9
OREGON INLET     0636      72   60/  5/  6 1026.5
13E OREGON INLT  0648      72                N/A     2/ 8   2/ 8
HATTERAS CG      0648      72   70/  3/  4 1026.0
DIAMOND BUOY     0650   75 81   80/  8/ 10 1026.0    3/ 8   3/ 8
CAPE LOOKOUT     0700   69      10/  6/  7 1025.9
BEAUFORT LAB     0648      72   10/  5/  6 1026.5
30 SE NEW RVR IN 0608   74      70/ 12/ 16 1025.7
30 SE NEW RVR IN NOT AVBL
27 SE WRIGHTSVLE 0608   74 76   70/ 12/ 16 1026.0
5 SE WRIGHTSVLE  0608   73 74   90/ 12/ 16 1026.0
225 S CAPE HAT   0650   76 80   90/ 12/ 16 1024.7    5/ 8   3/ 8
41 SE CHARLESTON 0650   78 79  100/ 14/ 16 1023.8    4/ 8   2/ 8

$$




USA.gov is the U.S. government's official web portal to all federal, state and local government web resources and services.